This is the latest recevied weather packets stored in our database for station/object WA2TQI. If no packets are shown the sender has not sent any weather packets the latest 10 day(s).
| Time | Temp. | Humidity | Pressure | Rain* | Wind** | Luminosity | Snow |
|---|---|---|---|---|---|---|---|
| 1778012326 | 28.33° C | 44% | 1009.5 hPa | 0 mm | - | - | - |
| 1778012023 | 28.89° C | 44% | 1009.6 hPa | 0 mm | - | - | - |
| 1778011722 | 28.89° C | 43% | 1009.7 hPa | 0 mm | - | - | - |
| 1778011418 | 28.33° C | 45% | 1009.6 hPa | 0 mm | - | - | - |
| 1778011114 | 28.33° C | 45% | 1009.7 hPa | 0 mm | - | - | - |
| 1778010811 | 28.89° C | 45% | 1009.6 hPa | 0 mm | - | - | - |
| 1778010508 | 28.89° C | 46% | 1009.8 hPa | 0 mm | - | - | - |
| 1778010205 | 28.33° C | 45% | 1009.7 hPa | 0 mm | - | - | - |
| 1778009900 | 28.33° C | 46% | 1010 hPa | 0 mm | - | - | - |
| 1778009599 | 29.44° C | 45% | 1010 hPa | 0 mm | - | - | - |
| 1778009296 | 28.89° C | 45% | 1010.1 hPa | 0 mm | - | - | - |
| 1778008994 | 28.33° C | 44% | 1010.1 hPa | 0 mm | - | - | - |
| 1778008692 | 29.44° C | 45% | 1010.1 hPa | 0 mm | - | - | - |
| 1778008390 | 29.44° C | 43% | 1010.1 hPa | 0 mm | - | - | - |
| 1778008086 | 28.89° C | 46% | 1010.2 hPa | 0 mm | - | - | - |
| 1778007781 | 29.44° C | 46% | 1010.2 hPa | 0 mm | - | - | - |
| 1778007478 | 29.44° C | 45% | 1010.3 hPa | 0 mm | - | - | - |
| 1778007174 | 28.89° C | 49% | 1010.4 hPa | 0 mm | - | - | - |
| 1778006870 | 28.33° C | 48% | 1010.5 hPa | 0 mm | - | - | - |
| 1778006568 | 28.33° C | 48% | 1010.6 hPa | 0 mm | - | - | - |
| 1778006264 | 28.89° C | 47% | 1010.6 hPa | 0 mm | - | - | - |
| 1778005962 | 28.33° C | 48% | 1010.8 hPa | 0 mm | - | - | - |
| 1778005658 | 28.89° C | 46% | 1010.8 hPa | 0 mm | - | - | - |
| 1778005355 | 27.78° C | 47% | 1010.7 hPa | 0 mm | - | - | - |
| 1778005051 | 27.78° C | 48% | 1010.9 hPa | 0 mm | - | - | - |
* Rain latest hour (hover to see other rain measurements)
** Current wind speed in m/s (hover to see current wind gust speed)